User: anonymous   Login
Location: Axtheid
(49.6213°N, 11.8205°E)
Time: 20:36:29
(UTC+00:00)
Language:

Cosmos 1758 Rocket - Orbit

View from above orbital plane
View from above orbital plane
View from above satellite
View from above satellite

Ground track
Ground track

The orbit data is extracted from the following two-line orbital elements,

1 16792U 86046B   21127.00041754  .00000082  00000-0  71213-5 0  9992
2 16792  82.4800 306.2670 0022846 299.6388  60.2552 14.83282429885330
Epoch (UTC): 07 May 2021 00:00:36
Eccentricity: 0.0022846
inclination: 82.4800°
perigee height: 603 km
apogee height: 635 km
right ascension of ascending node: 306.2670°
argument of perigee: 299.6388°
revolutions per day: 14.83282429
mean anomaly at epoch: 60.2552°
orbit number at epoch: 88533

The dashed part of the orbit path shows where the satellite is in the earth's shadow,  

DLR